Vorticity
nan nan nan nan nan nan nan nan nan nan nan nan nan nan nan nan nan nan nan nan nan nan nan nan nan nan nan nan nan nan nan nan nan nan nan nan nan nan nan nan nan nan nan
nan 9 6 5 6 5 5 5 5 5 5 5 4 5 5 4 4 4 4 5 5 4 4 4 4 4 4 4 4 4 5 5 5 4 5 6 6 7 5 6 5 5 nan
nan 7 5 6 6 5 5 5 5 5 5 4 4 5 5 5 5 6 5 5 5 4 5 5 4 4 4 4 4 4 5 6 5 6 8 9 7 6 5 5 6 6 nan
nan 5 6 7 6 6 5 5 5 5 4 4 4 4 5 5 5 6 6 7 7 6 7 5 4 4 4 4 4 4 6 6 5 9 14 13 9 6 5 5 5 5 nan
nan 6 8 7 6 5 5 5 5 5 4 5 4 4 5 5 4 4 4 6 8 9 7 6 5 4 4 4 3 4 6 5 9 14 14 9 9 8 7 6 4 5 nan
nan 8 8 6 6 6 5 5 5 4 4 4 4 4 6 6 5 5 6 6 8 8 7 6 5 4 5 4 4 5 7 7 9 10 9 8 8 10 7 6 5 5 nan
nan 8 8 7 8 6 5 4 4 4 4 5 7 7 7 6 6 5 6 6 7 7 7 6 6 5 5 4 4 6 7 11 10 7 5 7 11 7 5 8 8 6 nan
nan 7 8 7 5 6 5 4 5 6 7 7 9 8 6 6 6 5 6 6 6 6 6 6 5 6 5 5 5 7 6 10 9 6 6 5 9 8 8 9 11 9 nan
nan 6 6 9 8 6 6 8 7 8 7 8 7 6 6 6 7 6 6 5 5 5 5 5 5 5 5 5 4 9 12 7 4 6 6 7 8 7 7 7 8 13 nan
nan 7 7 8 8 8 10 9 6 6 7 7 6 7 5 5 5 5 5 5 5 5 5 4 4 4 3 3 5 11 11 4 7 6 6 11 7 7 6 6 6 7 nan
nan 5 6 7 7 7 7 8 8 6 5 5 5 4 1 4 6 6 6 6 4 4 4 4 4 4 4 5 9 10 3 4 6 7 9 10 6 5 6 7 7 7 nan
nan 3 5 5 5 6 6 6 6 5 4 5 6 4 5 7 7 7 8 7 5 4 4 5 6 7 9 8 9 6 4 7 5 7 8 8 8 5 5 5 6 9 nan
nan 5 5 5 6 5 5 5 5 7 7 8 7 6 7 6 6 6 6 7 8 7 6 7 7 8 9 10 8 6 8 7 7 6 6 7 8 8 7 9 5 8 nan
nan 5 6 6 5 3 4 7 7 6 6 7 8 6 5 7 7 7 7 8 7 7 7 6 8 7 7 9 8 8 8 7 7 7 4 7 9 10 10 8 6 5 nan
nan 7 7 4 4 6 5 5 6 6 7 7 7 6 5 8 7 6 8 7 7 7 8 7 7 7 6 7 9 8 6 6 8 9 5 3 8 9 13 9 6 3 nan
nan 7 6 6 6 5 6 6 5 7 7 7 8 8 6 7 8 7 8 7 8 8 9 9 8 7 7 7 9 7 6 7 8 8 8 2 4 7 9 12 9 5 nan
nan 8 8 6 4 5 5 6 6 7 8 7 8 9 9 7 8 8 8 8 9 9 8 6 7 8 7 7 8 8 7 7 7 7 7 6 2 4 7 8 7 7 nan
nan 9 6 8 8 5 5 4 6 8 8 8 8 9 9 8 8 7 8 9 8 8 7 7 6 7 7 7 7 7 7 7 7 6 7 8 7 4 2 7 8 8 nan
nan 8 8 9 8 5 5 7 8 7 6 8 8 8 9 9 8 7 7 9 8 7 8 6 8 8 7 8 9 8 8 8 8 7 7 7 7 8 7 3 1 3 nan
nan 8 7 8 9 6 4 6 8 7 8 10 9 9 8 8 8 7 8 9 7 8 7 7 8 9 11 9 6 6 7 8 9 8 9 7 6 8 8 3 2 -0 nan
nan 9 9 8 6 4 6 6 8 9 7 7 10 10 8 9 9 7 8 8 8 9 8 6 7 8 7 7 5 4 7 9 10 9 7 9 9 8 7 6 7 5 nan
nan 8 8 6 6 4 5 6 8 10 8 11 9 9 9 9 10 10 9 9 7 8 9 7 5 6 10 8 4 7 6 4 7 8 10 10 9 9 7 8 8 8 nan
nan 19 9 10 7 6 4 1 4 7 9 10 9 8 9 9 7 7 9 11 10 9 9 9 8 7 7 12 9 4 8 9 5 5 9 10 8 8 10 8 6 6 nan
nan 25 20 11 9 9 7 8 8 4 3 8 10 9 10 8 8 9 9 8 8 9 10 9 8 9 10 8 5 6 11 13 8 7 7 8 10 9 8 8 7 6 nan
nan 27 21 18 16 12 8 7 8 6 7 12 11 8 5 8 9 10 11 10 8 9 10 10 10 9 9 11 9 8 6 8 11 10 10 7 6 8 10 9 7 7 nan
nan nan nan nan nan nan nan nan nan nan nan nan nan nan nan nan nan nan nan nan nan nan nan nan nan nan nan nan nan nan nan nan nan nan nan nan nan nan nan nan nan nan nan
CAPE
394 1066 1418 1611 1785 1888 1878 1856 1871 1918 1985 2059 2052 2037 1979 1878 1821 1856 1919 1957 1889 1485 1266 1189 1070 862 669 542 480 392 362 409 502 505 675 862 1156 808 581 1032 790 753 829
756 1054 1354 1574 1686 1802 1906 1929 1969 2026 2136 2174 2072 1936 1823 1738 1714 1771 1794 1865 1850 1352 1261 1242 1059 780 673 588 517 470 526 516 452 576 535 682 1110 938 705 960 998 967 825
1162 1133 1331 1423 1606 1802 1952 2022 2123 2212 2195 2010 1951 1912 1939 1867 1802 1786 1737 1673 1690 1332 1238 1336 1229 983 779 649 584 509 554 597 513 442 387 388 783 1084 785 1150 1273 1086 815
1318 1238 1234 1416 1534 1730 1817 1941 2078 2168 2107 2008 1949 2006 2075 2010 2019 1903 1921 1686 1905 1780 1710 1808 1333 891 611 496 454 412 513 562 437 382 12 102 984 1229 1184 1118 999 736 737
1526 1565 1377 1478 1524 1656 1741 1859 1989 2008 1866 1792 1805 1965 1979 1802 1590 1453 1471 1306 1624 1666 1572 1304 899 612 506 450 438 448 485 302 199 372 176 906 999 1300 1278 1045 812 650 884
1490 1656 1406 1443 1528 1673 1744 1883 1889 1724 1492 1420 1475 1823 1968 1615 1468 1197 1248 1500 1596 1418 1305 1450 986 663 512 445 366 183 69 43 1 425 700 1109 932 1158 1519 1128 1023 881 769
1410 1466 1367 1442 1594 1794 1925 1940 1725 1559 1341 1172 1361 1782 1944 1747 1275 997 958 1000 1150 1167 1180 968 596 349 181 33 5 0 0 0 0 45 50 390 710 1249 1190 1403 1214 852 759
1286 1355 1351 1450 1611 1742 1818 1764 1563 1349 1167 1198 1397 1526 1500 1179 841 528 395 334 326 282 208 122 40 4 0 0 0 0 0 0 2 0 6 278 1241 1199 1346 1286 1345 839 763
998 1039 1132 1353 1476 1516 1511 1473 1319 1117 878 899 879 719 627 455 330 223 84 8 3 2 0 0 0 0 0 0 0 0 0 0 0 0 6 172 1258 1179 991 1052 979 1049 801
777 776 719 807 833 830 900 948 757 701 728 647 456 314 165 65 43 15 0 0 0 0 0 0 0 0 0 0 0 0 0 0 0 0 0 337 800 656 499 603 566 585 768
832 624 382 360 335 380 497 661 544 581 531 396 243 86 3 0 0 0 0 0 0 0 0 0 0 0 0 0 0 0 0 0 0 0 0 58 305 265 214 242 377 362 534
1037 770 398 290 118 171 363 143 106 272 97 13 0 0 0 0 0 0 0 0 0 0 0 0 0 0 0 0 0 0 0 0 0 0 0 5 6 6 5 192 194 391 575
926 1016 664 169 39 31 9 0 0 1 0 0 0 0 0 0 0 0 0 0 0 0 0 0 0 0 0 0 0 0 0 0 0 0 0 0 1 2 0 84 58 53 45
915 958 795 303 57 2 0 0 0 0 0 0 0 0 0 0 0 0 0 0 0 0 0 0 0 0 0 0 0 0 0 0 0 0 0 0 0 0 1 63 66 46 22
785 730 965 579 149 1 0 0 0 0 0 0 0 0 0 0 0 0 0 0 0 0 0 0 0 0 0 0 0 0 0 0 0 0 0 0 3 21 44 61 58 48 37
735 722 1025 804 323 11 0 0 0 0 0 0 0 0 0 0 0 0 0 0 0 0 0 0 0 0 0 0 0 0 0 0 0 0 0 0 0 4 36 65 51 48 35
776 734 1062 859 469 39 0 0 0 0 0 0 0 0 0 0 0 0 0 0 0 0 0 0 0 0 0 0 0 0 0 0 0 0 0 0 0 0 27 4 12 23 27
717 729 854 982 571 92 0 0 0 0 0 0 0 0 0 0 0 0 0 0 0 0 0 0 0 0 0 0 0 0 0 0 0 0 0 0 0 0 0 0 2 10 18
808 735 898 918 563 194 0 0 0 0 0 0 0 0 0 0 0 0 0 0 0 0 0 0 0 0 0 0 0 0 0 0 0 0 0 0 0 0 0 1 5 9 9
836 949 1051 891 597 259 0 0 0 0 0 0 0 0 0 0 0 0 0 0 0 0 0 0 0 0 0 0 0 0 0 0 0 0 0 0 0 0 0 0 0 1 3
930 1047 1102 773 492 152 0 0 0 0 0 0 0 0 0 0 0 0 0 0 0 0 0 0 0 0 0 0 0 0 0 0 0 0 0 0 0 0 0 0 0 0 0
1006 1098 1148 858 277 28 0 0 0 0 0 0 0 0 0 0 0 0 0 0 0 0 0 0 0 0 0 0 0 0 0 0 0 0 0 0 0 0 0 0 0 0 0
0 1082 1341 981 200 49 0 0 0 0 0 0 0 0 0 0 0 0 0 0 0 0 0 0 0 0 0 0 0 0 0 0 0 0 0 0 0 0 0 0 0 0 0
0 1 1176 981 108 17 0 0 0 0 0 0 0 0 0 0 0 0 0 0 0 0 0 0 0 0 0 0 0 0 0 0 0 0 0 0 0 0 0 0 0 0 0
0 41 737 360 8 1 0 0 0 0 0 0 0 0 0 0 0 0 0 0 0 0 0 0 0 0 0 0 0 0 0 0 0 0 0 0 0 0 0 0 0 0 0
0 0 0 0 0 0 0 0 0 0 0 0 0 0 0 0 0 0 0 0 0 0 0 0 0 0 0 0 0 0 0 0 0 0 0 0 0 0 0 0 0 0 0